[[{"header":{"parameterUnit":"m.s-1","parameterCategory":1,"la1":30.2991,"la2":30.254,"lo1":-89.0895,"lo2":-89.0444,"dy":0.0017,"dx":0.0017,"nx":28,"ny":28,"refTime":"2025-04-08T09:00:00:Z","depth":0,"parameterNumber":2,"parameterNumberName":"U-component_of_WINDS"},"data":[0,0,0,0,0,0,0,0,0,0,0,0,0,0,0,0,0,0,0,0,0,0,0,0,0,0,0,0,0,0,0,0,0,0,0,0,0,0,0,0,0,0,0,0,0,0,0,0,0,0,0,0,0,0,0,0,0,0,-0.6088,-0.6088,0,-0.6074,-0.6074,-0.6073,-0.6058,-0.6058,-0.6057,-0.6057,-0.6043,-0.6043,-0.6042,0,0,0,0,0,0,0,0,0,0,0,0,0,-0.6103,-0.6103,-0.6088,-0.6088,-0.6088,-0.6074,-0.6074,-0.6073,-0.6058,-0.6058,-0.6057,-0.6057,-0.6043,-0.6043,-0.6042,0,0,0,0,0,0,0,0,0,0,0,0,0,-0.6094,-0.6103,-0.6089,-0.6079,-0.6078,-0.6074,-0.6074,-0.6073,-0.6058,-0.6058,-0.6057,-0.6057,-0.6043,-0.6043,-0.6042,-0.6047,0,0,-0.6041,-0.6041,0,0,0,0,0,0,0,0,-0.6094,-0.6093,-0.608,-0.6079,-0.6078,-0.6067,-0.6073,-0.6065,-0.6058,-0.6065,-0.6057,-0.6057,-0.6051,-0.605,-0.6048,-0.6046,-0.6046,-0.6041,-0.6041,-0.6041,-0.6041,0,0,0,0,0,0,0,-0.6095,-0.6094,-0.6083,-0.608,-0.6079,-0.6075,-0.6073,-0.6072,-0.606,-0.6065,-0.6064,-0.6062,-0.6051,-0.6048,-0.6048,-0.6046,-0.6041,-0.6041,-0.6041,-0.6041,-0.6046,-0.6047,0,0,0,0,0,0,-0.6097,-0.6094,-0.6083,-0.6082,-0.6086,-0.6075,-0.6073,-0.6071,-0.606,-0.6058,-0.6062,-0.6061,-0.6049,-0.6048,-0.6047,-0.6051,-0.6041,-0.6041,-0.6041,-0.6046,-0.6046,-0.6047,0,0,0,0,0,0,-0.6097,-0.6096,-0.6084,-0.6088,-0.6086,-0.6075,-0.6073,-0.6071,-0.6069,-0.6058,-0.6056,-0.6062,-0.6049,-0.6048,-0.6047,-0.6051,-0.6041,-0.6041,-0.6046,-0.6046,-0.6046,-0.606,0,0,0,0,0,0,-0.6098,-0.6096,-0.6098,-0.6088,-0.6086,-0.6084,-0.6073,-0.6071,-0.6068,-0.6067,-0.6058,-0.6056,-0.6048,-0.6047,-0.6047,-0.605,-0.604,-0.6045,-0.6046,-0.6046,-0.606,-0.6061,-0.6063,0,0,0,0,0,-0.6099,-0.6103,-0.6098,-0.6097,-0.6088,-0.6084,-0.6083,-0.6074,-0.6069,-0.607,-0.6064,-0.6056,-0.6051,-0.6048,-0.6047,-0.605,-0.6045,-0.6046,-0.6046,-0.6059,-0.6061,-0.6063,0,0,0,0,0,0,-0.6114,-0.6101,-0.6096,-0.6098,-0.6092,-0.6081,-0.6083,-0.6076,-0.6072,-0.6071,-0.606,-0.6059,-0.6059,-0.6055,-0.6052,-0.6054,-0.6047,-0.6047,-0.6057,-0.6058,-0.606,-0.6061,-0.604,0,0,0,0,0,-0.6118,-0.6116,-0.6105,-0.6107,-0.6104,-0.6094,-0.6092,-0.6086,-0.608,-0.6077,-0.6071,-0.6065,-0.6062,-0.606,-0.6057,-0.6059,-0.6056,-0.6061,-0.6062,-0.6064,-0.6064,-0.6064,-0.6066,-0.6049,-0.6049,-0.6049,0,0,-0.6125,-0.6118,-0.6117,-0.611,-0.6105,-0.6103,-0.6092,-0.6091,-0.6089,-0.6077,-0.6076,-0.6071,-0.6064,-0.6065,-0.6065,-0.6061,-0.6068,-0.6065,-0.6066,-0.6065,-0.6065,-0.6067,-0.6068,-0.6049,-0.6049,-0.6049,0,0,-0.6137,-0.6132,-0.6133,-0.6128,-0.612,-0.6113,-0.6113,-0.6104,-0.61,-0.6098,-0.6089,-0.6087,-0.6082,-0.6077,-0.6074,-0.6084,-0.6077,-0.6083,-0.6091,-0.6092,-0.6093,-0.6094,-0.6097,-0.6099,-0.6084,-0.6084,-0.6084,0,-0.6147,-0.6144,-0.6134,-0.6133,-0.613,-0.6118,-0.6119,-0.6115,-0.6106,-0.6104,-0.61,-0.6093,-0.6088,-0.6087,-0.6089,-0.6087,-0.6087,-0.6084,-0.6094,-0.6095,-0.6096,-0.6098,-0.61,-0.6085,-0.6085,-0.6084,-0.6084,0,-0.6157,-0.6154,-0.6156,-0.6148,-0.6145,-0.6145,-0.6135,-0.6133,-0.6127,-0.612,-0.6119,-0.6112,-0.6106,-0.6106,-0.61,-0.6104,-0.6101,-0.6096,-0.6088,-0.6098,-0.6101,-0.6102,-0.6086,-0.6085,-0.6085,-0.6085,0,0,-0.6178,-0.6164,-0.6165,-0.6161,-0.6151,-0.6149,-0.6148,-0.6143,-0.6141,-0.6136,-0.6135,-0.613,-0.6125,-0.6121,-0.6115,-0.6115,-0.6123,-0.6109,-0.6109,-0.6111,-0.6126,-0.613,-0.6131,-0.6118,-0.6118,-0.6118,-0.6126,0,-0.6188,-0.6186,-0.6177,-0.6177,-0.6175,-0.6164,-0.6163,-0.6157,-0.6151,-0.6148,-0.6141,-0.6138,-0.6131,-0.6129,-0.6129,-0.6122,-0.6125,-0.6121,-0.6116,-0.6116,-0.6118,-0.6133,-0.6137,-0.6145,-0.6127,-0.6127,-0.6127,0,-0.62,-0.6195,-0.6195,-0.6185,-0.6183,-0.6183,-0.6176,-0.6174,-0.6167,-0.6162,-0.6158,-0.615,-0.6149,-0.6142,-0.6139,-0.6137,-0.6134,-0.6131,-0.6131,-0.613,-0.6122,-0.6131,-0.6147,-0.6148,-0.6129,-0.6129,-0.6129,0,-0.6215,-0.6208,-0.6207,-0.6204,-0.6192,-0.6192,-0.6187,-0.618,-0.6177,-0.6171,-0.6169,-0.6164,-0.6161,-0.6157,-0.6148,-0.6144,-0.6146,-0.6139,-0.6142,-0.6143,-0.6143,-0.6143,-0.6158,-0.6142,-0.6142,-0.6142,-0.6142,0,-0.6227,-0.6227,-0.6214,-0.6213,-0.6213,-0.6202,-0.6202,-0.6196,-0.619,-0.6187,-0.6178,-0.6176,-0.6165,-0.6161,-0.6155,-0.6153,-0.6152,-0.6148,-0.6146,-0.6149,-0.6149,-0.6147,-0.6146,-0.6143,-0.6142,-0.6142,-0.6142,0,-0.6244,-0.6235,-0.6232,-0.6222,-0.6219,-0.6219,-0.621,-0.6208,-0.6202,-0.6199,-0.6198,-0.6187,-0.6183,-0.6174,-0.6167,-0.6162,-0.6162,-0.6159,-0.6164,-0.6163,-0.6167,-0.6166,-0.618,-0.6182,-0.6166,-0.6166,-0.6166,0,-0.6252,-0.6252,-0.6241,-0.6238,-0.6234,-0.623,-0.6227,-0.6217,-0.6214,-0.6205,-0.6205,-0.62,-0.6195,-0.6189,-0.618,-0.6175,-0.6171,-0.6177,-0.6171,-0.6173,-0.6171,-0.6171,-0.617,-0.6178,-0.6178,-0.6179,-0.6179,0,-0.6267,-0.6262,-0.6258,-0.6252,-0.6248,-0.6243,-0.6237,-0.6236,-0.6224,-0.6221,-0.6217,-0.6213,-0.6206,-0.6201,-0.6194,-0.6189,-0.6182,-0.6181,-0.6181,-0.6183,-0.6186,-0.6184,-0.6168,-0.618,-0.618,-0.618,-0.618,-0.618,-0.6279,-0.6278,-0.627,-0.6265,-0.626,-0.6255,-0.6253,-0.6245,-0.6241,-0.6234,-0.6229,-0.6224,-0.6217,-0.6207,-0.6202,-0.6199,-0.6195,-0.6196,-0.6196,-0.6196,-0.6197,-0.6187,-0.6198,-0.6198,-0.6198,-0.6198,-0.6197,0,-0.6293,-0.6287,-0.6283,-0.6275,-0.6271,-0.6265,-0.6258,-0.6255,-0.6251,-0.6245,-0.624,-0.6235,-0.6229,-0.6221,-0.6215,-0.6213,-0.621,-0.6212,-0.6212,-0.6211,-0.6201,-0.6201,-0.6215,-0.6215,-0.6215,-0.6215,-0.6215,-0.6215,-0.63,-0.6298,-0.6292,-0.6287,-0.6281,-0.6277,-0.6273,-0.6268,-0.6263,-0.6257,-0.6252,-0.6247,-0.6239,-0.6232,-0.6227,-0.6225,-0.6223,-0.6226,-0.6222,-0.6213,-0.6212,-0.621,-0.621,-0.6226,-0.6226,-0.6233,-0.6233,-0.6233]},{"header":{"parameterUnit":"m.s-1","parameterCategory":1,"la1":30.2991,"la2":30.254,"lo1":-89.0895,"lo2":-89.0444,"dy":0.0017,"dx":0.0017,"nx":28,"ny":28,"refTime":"2025-04-08T09:00:00:Z","depth":0,"parameterNumber":3,"parameterNumberName":"V-component_of_WINDS"},"data":[0,0,0,0,0,0,0,0,0,0,0,0,0,0,0,0,0,0,0,0,0,0,0,0,0,0,0,0,0,0,0,0,0,0,0,0,0,0,0,0,0,0,0,0,0,0,0,0,0,0,0,0,0,0,0,0,0,0,-3.5092,-3.5092,0,-3.5126,-3.5127,-3.5127,-3.513,-3.513,-3.5129,-3.5129,-3.5162,-3.5163,-3.5164,0,0,0,0,0,0,0,0,0,0,0,0,0,-3.5027,-3.5028,-3.5092,-3.5092,-3.5092,-3.5126,-3.5127,-3.5127,-3.513,-3.513,-3.5129,-3.5129,-3.5161,-3.5163,-3.5164,0,0,0,0,0,0,0,0,0,0,0,0,0,-3.5057,-3.5028,-3.5092,-3.5098,-3.5099,-3.5126,-3.5127,-3.5127,-3.513,-3.513,-3.5129,-3.5129,-3.5161,-3.5162,-3.5164,-3.5186,0,0,-3.517,-3.5171,0,0,0,0,0,0,0,0,-3.5056,-3.506,-3.5097,-3.5098,-3.5099,-3.5123,-3.5116,-3.5147,-3.513,-3.5118,-3.5129,-3.5128,-3.5149,-3.5152,-3.5159,-3.5188,-3.5189,-3.517,-3.5171,-3.5172,-3.5172,0,0,0,0,0,0,0,-3.5054,-3.5058,-3.5105,-3.5097,-3.5099,-3.5099,-3.5103,-3.5122,-3.5136,-3.5119,-3.512,-3.5124,-3.515,-3.5158,-3.516,-3.519,-3.517,-3.5171,-3.5173,-3.5173,-3.524,-3.5241,0,0,0,0,0,0,-3.505,-3.5057,-3.5104,-3.5106,-3.5076,-3.5101,-3.5105,-3.5116,-3.5136,-3.5139,-3.5124,-3.5124,-3.5155,-3.5158,-3.5161,-3.519,-3.5172,-3.5173,-3.5174,-3.5239,-3.524,-3.5241,0,0,0,0,0,0,-3.5049,-3.5055,-3.5103,-3.5082,-3.5088,-3.5102,-3.5115,-3.5117,-3.5125,-3.514,-3.5142,-3.513,-3.5155,-3.5159,-3.5181,-3.5191,-3.5174,-3.5176,-3.5238,-3.524,-3.524,-3.5247,0,0,0,0,0,0,-3.5047,-3.5054,-3.5063,-3.5082,-3.5089,-3.5122,-3.5115,-3.5118,-3.5129,-3.5128,-3.5146,-3.5148,-3.5154,-3.5178,-3.5183,-3.5193,-3.5177,-3.5238,-3.5239,-3.524,-3.5246,-3.5248,-3.525,0,0,0,0,0,-3.5045,-3.5062,-3.5063,-3.5069,-3.51,-3.5122,-3.5126,-3.5134,-3.5129,-3.5138,-3.5148,-3.5148,-3.5189,-3.518,-3.5185,-3.5197,-3.5237,-3.5239,-3.524,-3.5245,-3.5248,-3.525,0,0,0,0,0,0,-3.5042,-3.5064,-3.5066,-3.509,-3.5105,-3.5123,-3.5134,-3.5136,-3.5152,-3.5151,-3.5159,-3.5163,-3.5185,-3.5193,-3.5182,-3.522,-3.5213,-3.5215,-3.5214,-3.5217,-3.5219,-3.5217,-3.5179,0,0,0,0,0,-3.5045,-3.5062,-3.508,-3.5099,-3.5107,-3.5119,-3.5129,-3.5134,-3.5149,-3.5155,-3.5166,-3.518,-3.5197,-3.5207,-3.5223,-3.5247,-3.5251,-3.5257,-3.5259,-3.5261,-3.5263,-3.5279,-3.5282,-3.5246,-3.5246,-3.5246,0,0,-3.5049,-3.5064,-3.5073,-3.5099,-3.5111,-3.5129,-3.5124,-3.5142,-3.5155,-3.5157,-3.518,-3.5188,-3.5204,-3.5228,-3.5239,-3.5236,-3.5275,-3.5263,-3.5264,-3.5266,-3.5281,-3.5284,-3.5287,-3.5247,-3.5247,-3.5247,0,0,-3.5067,-3.5079,-3.5098,-3.511,-3.5129,-3.5138,-3.5142,-3.5161,-3.5168,-3.519,-3.5193,-3.5208,-3.5236,-3.5248,-3.5258,-3.5283,-3.5284,-3.5288,-3.5299,-3.5313,-3.5316,-3.5319,-3.533,-3.5333,-3.529,-3.529,-3.529,0,-3.507,-3.5097,-3.5107,-3.5126,-3.5138,-3.5142,-3.5161,-3.5172,-3.5195,-3.5203,-3.5199,-3.5235,-3.5246,-3.5274,-3.528,-3.5287,-3.5293,-3.5286,-3.5315,-3.5318,-3.5321,-3.5331,-3.5335,-3.529,-3.529,-3.529,-3.529,0,-3.5101,-3.512,-3.5133,-3.5157,-3.517,-3.5189,-3.5201,-3.5213,-3.5217,-3.5226,-3.525,-3.5264,-3.5284,-3.529,-3.5293,-3.5319,-3.5317,-3.5314,-3.5306,-3.5324,-3.5334,-3.5338,-3.5291,-3.5291,-3.5291,-3.5291,0,0,-3.5117,-3.5148,-3.5153,-3.5165,-3.5187,-3.5201,-3.5221,-3.5242,-3.5253,-3.5268,-3.5285,-3.531,-3.5308,-3.5319,-3.5324,-3.5337,-3.5359,-3.5333,-3.5334,-3.5339,-3.539,-3.5393,-3.5397,-3.5359,-3.536,-3.536,-3.5389,0,-3.5139,-3.5175,-3.5185,-3.5216,-3.5234,-3.524,-3.5257,-3.5272,-3.5282,-3.5299,-3.5308,-3.5327,-3.5322,-3.5329,-3.5342,-3.5353,-3.5369,-3.5351,-3.5376,-3.5376,-3.5373,-3.5402,-3.5404,-3.5431,-3.5393,-3.5393,-3.5394,0,-3.5168,-3.5187,-3.522,-3.5243,-3.5251,-3.5266,-3.5287,-3.5303,-3.5321,-3.5327,-3.5341,-3.5345,-3.5366,-3.5357,-3.5387,-3.5375,-3.5385,-3.5392,-3.5393,-3.5397,-3.5387,-3.5407,-3.5439,-3.5443,-3.5399,-3.5399,-3.5399,0,-3.5179,-3.5212,-3.5237,-3.5247,-3.5273,-3.5284,-3.5295,-3.5313,-3.5325,-3.5343,-3.5352,-3.5371,-3.5383,-3.5398,-3.5408,-3.54,-3.5437,-3.5428,-3.5443,-3.5443,-3.5451,-3.5451,-3.5486,-3.5456,-3.5456,-3.5456,-3.5456,0,-3.5202,-3.5223,-3.5243,-3.5258,-3.5281,-3.5293,-3.5315,-3.5326,-3.5343,-3.536,-3.5365,-3.5382,-3.5393,-3.5411,-3.5419,-3.5443,-3.5447,-3.5453,-3.5455,-3.5454,-3.5453,-3.5461,-3.546,-3.5457,-3.5457,-3.5456,-3.5456,0,-3.5218,-3.5232,-3.526,-3.5283,-3.529,-3.5306,-3.5326,-3.5341,-3.5351,-3.5374,-3.538,-3.5396,-3.5418,-3.5429,-3.5455,-3.546,-3.5489,-3.5489,-3.5483,-3.5484,-3.5499,-3.5498,-3.5542,-3.5549,-3.5513,-3.5513,-3.5513,0,-3.5232,-3.5249,-3.5275,-3.5288,-3.53,-3.532,-3.5334,-3.5346,-3.5361,-3.5384,-3.5397,-3.5419,-3.5438,-3.5472,-3.5486,-3.5507,-3.5508,-3.5522,-3.5511,-3.551,-3.5511,-3.551,-3.5513,-3.5525,-3.5525,-3.5525,-3.5525,0,-3.5257,-3.5264,-3.5285,-3.5308,-3.5325,-3.5344,-3.5362,-3.5372,-3.5387,-3.5403,-3.5427,-3.5441,-3.547,-3.5493,-3.5515,-3.5526,-3.5529,-3.5529,-3.5534,-3.5533,-3.553,-3.5533,-3.549,-3.5528,-3.5528,-3.5527,-3.5527,-3.5527,-3.5274,-3.529,-3.5312,-3.5335,-3.535,-3.5368,-3.5385,-3.5398,-3.5418,-3.5444,-3.5449,-3.5475,-3.5494,-3.5525,-3.5537,-3.5556,-3.5554,-3.556,-3.5562,-3.5564,-3.5566,-3.5526,-3.556,-3.556,-3.556,-3.556,-3.556,0,-3.5301,-3.5316,-3.5337,-3.5364,-3.5383,-3.5385,-3.5406,-3.5421,-3.5444,-3.5462,-3.5482,-3.551,-3.5532,-3.5549,-3.5572,-3.5585,-3.5587,-3.5591,-3.559,-3.5593,-3.5566,-3.556,-3.5589,-3.5589,-3.5589,-3.5589,-3.5589,-3.5589,-3.5317,-3.5344,-3.5354,-3.539,-3.5405,-3.5431,-3.5443,-3.546,-3.5475,-3.5507,-3.5526,-3.5538,-3.5556,-3.5581,-3.5602,-3.5606,-3.5615,-3.5619,-3.5623,-3.5598,-3.5595,-3.5592,-3.5587,-3.562,-3.5621,-3.565,-3.565,-3.565]}]]